Time,TemperatureF,DewpointF,PressureIn,WindDirection,WindDirectionDegrees,WindSpeedMPH,WindSpeedGustMPH,Humidity,HourlyPrecipIn,Conditions,Clouds,dailyrainin,SoftwareType,DateUTC
2013-04-14 00:01:00,28.0,20.0,30.04,SSW,204,20.0,32.0,73,0.00,,,0.00,,2013-04-14 07:01:00,
2013-04-14 00:11:00,28.0,20.0,30.04,SSW,204,20.0,32.0,73,0.00,,,0.00,,2013-04-14 07:11:00,
2013-04-14 00:21:00,28.0,21.0,30.03,SSW,201,16.0,31.0,74,0.00,,,0.00,,2013-04-14 07:21:00,
2013-04-14 00:31:00,28.0,21.0,30.03,SW,220,18.0,30.0,75,0.00,,,0.00,,2013-04-14 07:31:00,
2013-04-14 00:42:00,28.0,21.0,30.03,SW,220,18.0,30.0,75,0.00,,,0.00,,2013-04-14 07:42:00,
2013-04-14 00:52:00,27.0,20.0,30.02,SSW,204,17.0,37.0,75,0.00,,,0.00,,2013-04-14 07:52:00,
2013-04-14 01:01:00,27.0,20.0,30.02,SSW,210,18.0,38.0,76,0.00,,,0.00,,2013-04-14 08:01:00,
2013-04-14 01:11:00,27.0,20.0,30.02,SSW,210,18.0,38.0,76,0.00,,,0.00,,2013-04-14 08:11:00,
2013-04-14 01:21:00,27.0,21.0,30.01,SSW,204,17.0,35.0,77,0.00,,,0.00,,2013-04-14 08:21:00,
2013-04-14 01:31:00,27.0,22.0,30.01,SSW,207,16.0,30.0,80,0.00,,,0.00,,2013-04-14 08:31:00,
2013-04-14 01:42:00,27.0,22.0,30.01,SSW,207,16.0,30.0,80,0.00,,,0.00,,2013-04-14 08:42:00,
2013-04-14 01:51:00,27.0,21.0,30.01,SSW,213,16.0,33.0,79,0.00,,,0.00,,2013-04-14 08:51:00,
2013-04-14 02:02:00,27.0,21.0,30.00,SSW,196,16.0,30.0,79,0.00,,,0.00,,2013-04-14 09:02:00,
2013-04-14 02:11:00,27.0,21.0,30.00,SSW,196,16.0,30.0,79,0.00,,,0.00,,2013-04-14 09:11:00,
2013-04-14 02:22:00,26.0,21.0,29.99,SSW,206,19.0,30.0,80,0.00,,,0.00,,2013-04-14 09:22:00,
2013-04-14 02:32:00,26.0,21.0,29.98,SW,220,14.0,31.0,80,0.00,,,0.00,,2013-04-14 09:32:00,
2013-04-14 02:42:00,26.0,21.0,29.98,SW,220,14.0,31.0,80,0.00,,,0.00,,2013-04-14 09:42:00,
2013-04-14 02:53:00,26.0,21.0,29.99,SSW,210,15.0,30.0,80,0.00,,,0.00,,2013-04-14 09:53:00,
2013-04-14 03:02:00,25.0,20.0,29.98,SSW,212,19.0,30.0,80,0.00,,,0.00,,2013-04-14 10:02:00,
2013-04-14 03:12:00,25.0,20.0,29.98,SSW,212,19.0,30.0,80,0.00,,,0.00,,2013-04-14 10:12:00,
2013-04-14 03:22:00,25.0,20.0,29.98,SSW,212,19.0,30.0,80,0.00,,,0.00,,2013-04-14 10:22:00,
2013-04-14 03:32:00,25.0,20.0,29.98,SSW,213,14.0,29.0,81,0.00,,,0.00,,2013-04-14 10:32:00,
2013-04-14 03:42:00,25.0,20.0,29.98,SSW,213,14.0,29.0,81,0.00,,,0.00,,2013-04-14 10:42:00,
2013-04-14 03:52:00,25.0,20.0,29.98,SW,215,17.0,28.0,81,0.00,,,0.00,,2013-04-14 10:52:00,
2013-04-14 04:02:00,25.0,19.0,29.98,SSW,213,18.0,31.0,79,0.00,,,0.00,,2013-04-14 11:02:00,
2013-04-14 04:12:00,25.0,19.0,29.98,SSW,213,18.0,31.0,79,0.00,,,0.00,,2013-04-14 11:12:00,
2013-04-14 04:22:00,25.0,19.0,29.98,SSW,213,15.0,33.0,76,0.00,,,0.00,,2013-04-14 11:22:00,
2013-04-14 04:32:00,25.0,18.0,29.99,SW,220,18.0,31.0,74,0.00,,,0.00,,2013-04-14 11:32:00,
2013-04-14 04:42:00,25.0,18.0,29.99,SW,220,18.0,31.0,74,0.00,,,0.00,,2013-04-14 11:42:00,
2013-04-14 04:52:00,25.0,18.0,29.97,SW,221,19.0,30.0,73,0.00,,,0.00,,2013-04-14 11:52:00,
2013-04-14 05:01:00,25.0,18.0,29.97,SW,223,17.0,28.0,75,0.00,,,0.00,,2013-04-14 12:01:00,
2013-04-14 05:11:00,25.0,18.0,29.97,SW,223,17.0,28.0,75,0.00,,,0.00,,2013-04-14 12:11:00,
2013-04-14 05:21:00,25.0,18.0,29.97,SW,223,13.0,24.0,75,0.00,,,0.00,,2013-04-14 12:21:00,
2013-04-14 05:32:00,25.0,18.0,29.98,SW,225,15.0,31.0,73,0.00,,,0.00,,2013-04-14 12:32:00,
2013-04-14 05:42:00,25.0,18.0,29.98,SW,225,15.0,31.0,73,0.00,,,0.00,,2013-04-14 12:42:00,
2013-04-14 05:52:00,25.0,17.0,29.98,SW,226,15.0,26.0,70,0.00,,,0.00,,2013-04-14 12:52:00,
2013-04-14 06:01:00,25.0,16.0,29.98,SW,226,16.0,28.0,68,0.00,,,0.00,,2013-04-14 13:01:00,
2013-04-14 06:11:00,25.0,16.0,29.98,SW,226,16.0,28.0,68,0.00,,,0.00,,2013-04-14 13:11:00,
2013-04-14 06:22:00,25.0,15.0,29.97,SW,224,14.0,30.0,66,0.00,,,0.00,,2013-04-14 13:22:00,
2013-04-14 06:32:00,25.0,15.0,29.96,SSW,213,16.0,30.0,65,0.00,,,0.00,,2013-04-14 13:32:00,
2013-04-14 06:42:00,25.0,15.0,29.96,SSW,213,16.0,30.0,65,0.00,,,0.00,,2013-04-14 13:42:00,
2013-04-14 06:52:00,25.0,15.0,29.97,SW,221,17.0,25.0,66,0.00,,,0.00,,2013-04-14 13:52:00,
2013-04-14 07:02:00,25.0,16.0,29.97,SW,218,13.0,26.0,68,0.00,,,0.00,,2013-04-14 14:02:00,
2013-04-14 07:11:00,25.0,16.0,29.99,SW,223,10.0,27.0,67,0.00,,,0.00,,2013-04-14 14:11:00,
2013-04-14 07:21:00,25.0,16.0,29.99,SW,223,10.0,27.0,67,0.00,,,0.00,,2013-04-14 14:21:00,
2013-04-14 07:31:00,25.0,16.0,29.99,SW,223,16.0,31.0,68,0.00,,,0.00,,2013-04-14 14:31:00,
2013-04-14 07:41:00,25.0,16.0,29.99,SW,223,16.0,31.0,68,0.00,,,0.00,,2013-04-14 14:41:00,
2013-04-14 07:52:00,26.0,18.0,29.99,SW,225,15.0,33.0,70,0.00,,,0.00,,2013-04-14 14:52:00,
2013-04-14 08:01:00,27.0,19.0,30.00,SW,235,16.0,32.0,70,0.00,,,0.00,,2013-04-14 15:01:00,
2013-04-14 08:12:00,27.0,19.0,30.00,SW,235,16.0,32.0,70,0.00,,,0.00,,2013-04-14 15:12:00,
2013-04-14 08:22:00,28.0,18.0,29.99,SW,225,18.0,31.0,67,0.00,,,0.00,,2013-04-14 15:22:00,
2013-04-14 08:33:00,27.0,18.0,30.01,WSW,242,13.0,33.0,69,0.00,,,0.00,,2013-04-14 15:33:00,
2013-04-14 08:42:00,27.0,18.0,30.01,WSW,242,13.0,33.0,69,0.00,,,0.00,,2013-04-14 15:42:00,
2013-04-14 08:53:00,28.0,19.0,30.00,SW,235,11.0,29.0,69,0.00,,,0.00,,2013-04-14 15:53:00,
2013-04-14 09:03:00,28.0,20.0,30.00,SW,228,10.0,24.0,70,0.00,,,0.00,,2013-04-14 16:03:00,
2013-04-14 09:12:00,28.0,20.0,30.00,SW,228,10.0,24.0,70,0.00,,,0.00,,2013-04-14 16:12:00,
2013-04-14 09:22:00,28.0,20.0,30.00,WSW,251,8.0,22.0,71,0.00,,,0.00,,2013-04-14 16:22:00,
2013-04-14 09:32:00,29.0,20.0,30.01,WSW,239,10.0,24.0,70,0.00,,,0.00,,2013-04-14 16:32:00,
2013-04-14 09:42:00,29.0,20.0,30.01,WSW,239,10.0,24.0,70,0.00,,,0.00,,2013-04-14 16:42:00,
2013-04-14 09:53:00,29.0,21.0,29.99,WSW,243,11.0,22.0,71,0.00,,,0.00,,2013-04-14 16:53:00,
2013-04-14 10:01:00,30.0,21.0,30.02,WSW,252,12.0,27.0,70,0.00,,,0.00,,2013-04-14 17:01:00,
2013-04-14 10:12:00,30.0,21.0,30.02,WSW,252,12.0,27.0,70,0.00,,,0.00,,2013-04-14 17:12:00,
2013-04-14 10:22:00,29.0,21.0,30.03,West,268,13.0,21.0,72,0.00,,,0.00,,2013-04-14 17:22:00,
2013-04-14 10:32:00,30.0,22.0,30.03,West,270,11.0,25.0,72,0.00,,,0.00,,2013-04-14 17:32:00,
2013-04-14 10:41:00,30.0,22.0,30.03,West,270,11.0,25.0,72,0.00,,,0.00,,2013-04-14 17:41:00,
2013-04-14 10:52:00,31.0,23.0,30.04,West,260,7.0,19.0,71,0.00,,,0.00,,2013-04-14 17:52:00,
2013-04-14 11:02:00,33.0,24.0,30.05,WSW,239,11.0,21.0,68,0.00,,,0.00,,2013-04-14 18:02:00,
2013-04-14 11:12:00,33.0,24.0,30.05,WSW,239,11.0,21.0,68,0.00,,,0.00,,2013-04-14 18:12:00,
2013-04-14 11:21:00,33.0,24.0,30.04,SW,214,9.0,19.0,68,0.00,,,0.00,,2013-04-14 18:21:00,
2013-04-14 11:32:00,33.0,24.0,30.05,SW,216,14.0,23.0,68,0.00,,,0.00,,2013-04-14 18:32:00,
2013-04-14 11:42:00,33.0,24.0,30.05,SW,216,14.0,23.0,68,0.00,,,0.00,,2013-04-14 18:42:00,
2013-04-14 11:53:00,34.0,24.0,30.03,SSW,205,11.0,21.0,66,0.00,,,0.00,,2013-04-14 18:53:00,
2013-04-14 12:02:00,34.0,23.0,30.04,SSW,196,11.0,22.0,65,0.00,,,0.00,,2013-04-14 19:02:00,
2013-04-14 12:11:00,34.0,23.0,30.04,SSW,196,11.0,22.0,65,0.00,,,0.00,,2013-04-14 19:11:00,
2013-04-14 12:21:00,35.0,24.0,30.05,SSW,212,11.0,22.0,64,0.00,,,0.00,,2013-04-14 19:21:00,
2013-04-14 12:32:00,35.0,23.0,30.03,SSW,210,13.0,27.0,62,0.00,,,0.00,,2013-04-14 19:32:00,
2013-04-14 12:42:00,35.0,23.0,30.03,SSW,210,13.0,27.0,62,0.00,,,0.00,,2013-04-14 19:42:00,
2013-04-14 12:52:00,35.0,24.0,30.04,SSW,207,16.0,25.0,63,0.00,,,0.00,,2013-04-14 19:52:00,
2013-04-14 13:02:00,36.0,24.0,30.04,SSW,203,14.0,26.0,62,0.00,,,0.00,,2013-04-14 20:02:00,
2013-04-14 13:21:00,36.0,24.0,30.04,SSW,203,12.0,22.0,62,0.00,,,0.00,,2013-04-14 20:21:00,
2013-04-14 13:32:00,37.0,24.0,30.04,SSW,197,16.0,29.0,60,0.00,,,0.00,,2013-04-14 20:32:00,
2013-04-14 13:42:00,37.0,24.0,30.04,SSW,197,16.0,29.0,60,0.00,,,0.00,,2013-04-14 20:42:00,
2013-04-14 13:52:00,37.0,24.0,30.04,SSW,204,12.0,26.0,59,0.00,,,0.00,,2013-04-14 20:52:00,
2013-04-14 14:01:00,37.0,24.0,30.04,SSW,201,14.0,28.0,60,0.00,,,0.00,,2013-04-14 21:01:00,
2013-04-14 14:12:00,37.0,24.0,30.04,SSW,201,14.0,28.0,60,0.00,,,0.00,,2013-04-14 21:12:00,
2013-04-14 14:22:00,36.0,24.0,30.04,SSW,197,18.0,28.0,61,0.00,,,0.00,,2013-04-14 21:22:00,
2013-04-14 14:32:00,37.0,24.0,30.03,South,189,16.0,28.0,58,0.00,,,0.00,,2013-04-14 21:32:00,
2013-04-14 14:42:00,37.0,24.0,30.03,South,189,16.0,28.0,58,0.00,,,0.00,,2013-04-14 21:42:00,
2013-04-14 14:53:00,38.0,24.0,30.03,SSW,206,15.0,36.0,57,0.00,,,0.00,,2013-04-14 21:53:00,
2013-04-14 15:02:00,39.0,24.0,30.03,SSW,198,16.0,29.0,55,0.00,,,0.00,,2013-04-14 22:02:00,
2013-04-14 15:12:00,39.0,24.0,30.03,SSW,198,16.0,29.0,55,0.00,,,0.00,,2013-04-14 22:12:00,
2013-04-14 15:22:00,39.0,23.0,30.03,SW,214,11.0,25.0,53,0.00,,,0.00,,2013-04-14 22:22:00,
2013-04-14 15:32:00,39.0,24.0,30.02,South,191,15.0,30.0,55,0.00,,,0.00,,2013-04-14 22:32:00,
2013-04-14 15:42:00,39.0,24.0,30.02,South,191,15.0,30.0,55,0.00,,,0.00,,2013-04-14 22:42:00,
2013-04-14 15:52:00,38.0,24.0,30.02,SSW,201,18.0,30.0,57,0.00,,,0.00,,2013-04-14 22:52:00,
2013-04-14 16:01:00,38.0,25.0,30.02,SSW,198,12.0,27.0,58,0.00,,,0.00,,2013-04-14 23:01:00,
2013-04-14 16:12:00,38.0,25.0,30.02,SSW,198,12.0,27.0,58,0.00,,,0.00,,2013-04-14 23:12:00,
2013-04-14 16:22:00,38.0,24.0,30.01,South,189,20.0,31.0,57,0.00,,,0.00,,2013-04-14 23:22:00,
2013-04-14 16:32:00,39.0,25.0,30.01,SSW,196,19.0,31.0,57,0.00,,,0.00,,2013-04-14 23:32:00,
2013-04-14 16:42:00,39.0,25.0,30.01,SSW,196,19.0,31.0,57,0.00,,,0.00,,2013-04-14 23:42:00,
2013-04-14 16:52:00,38.0,24.0,30.00,SSW,193,19.0,35.0,57,0.00,,,0.00,,2013-04-14 23:52:00,
2013-04-14 17:01:00,37.0,24.0,30.00,South,188,18.0,27.0,60,0.00,,,0.00,,2013-04-15 00:01:00,
2013-04-14 17:11:00,37.0,24.0,30.00,South,188,18.0,27.0,60,0.00,,,0.00,,2013-04-15 00:11:00,
2013-04-14 17:22:00,37.0,24.0,30.01,SSW,202,17.0,27.0,60,0.00,,,0.00,,2013-04-15 00:22:00,
2013-04-14 17:32:00,37.0,24.0,29.99,South,191,20.0,33.0,60,0.00,,,0.00,,2013-04-15 00:32:00,
2013-04-14 17:42:00,36.0,25.0,30.00,SSW,197,15.0,29.0,63,0.00,,,0.00,,2013-04-15 00:42:00,
2013-04-14 17:52:00,36.0,25.0,30.00,SSW,197,15.0,29.0,63,0.00,,,0.00,,2013-04-15 00:52:00,
2013-04-14 18:02:00,36.0,25.0,30.00,SSW,199,18.0,31.0,64,0.00,,,0.00,,2013-04-15 01:02:00,
2013-04-14 18:12:00,36.0,25.0,30.00,SSW,199,18.0,31.0,64,0.00,,,0.00,,2013-04-15 01:12:00,
2013-04-14 18:22:00,35.0,24.0,29.99,SSW,198,16.0,28.0,65,0.00,,,0.00,,2013-04-15 01:22:00,
2013-04-14 18:32:00,34.0,25.0,29.98,South,191,18.0,30.0,69,0.00,,,0.00,,2013-04-15 01:32:00,
2013-04-14 18:42:00,34.0,25.0,29.98,South,191,18.0,30.0,69,0.00,,,0.00,,2013-04-15 01:42:00,
2013-04-14 18:52:00,33.0,25.0,29.98,SSW,195,19.0,29.0,71,0.00,,,0.00,,2013-04-15 01:52:00,
2013-04-14 19:02:00,32.0,24.0,29.98,South,188,18.0,29.0,73,0.00,,,0.00,,2013-04-15 02:02:00,
2013-04-14 19:11:00,32.0,24.0,29.98,South,188,18.0,29.0,73,0.00,,,0.00,,2013-04-15 02:11:00,
2013-04-14 19:21:00,31.0,24.0,29.98,South,188,19.0,30.0,76,0.00,,,0.00,,2013-04-15 02:21:00,
2013-04-14 19:31:00,30.0,24.0,29.98,South,190,20.0,32.0,77,0.00,,,0.00,,2013-04-15 02:31:00,
2013-04-14 19:42:00,30.0,24.0,29.98,South,190,20.0,32.0,77,0.00,,,0.00,,2013-04-15 02:42:00,
2013-04-14 19:52:00,30.0,24.0,29.98,South,187,18.0,30.0,77,0.00,,,0.00,,2013-04-15 02:52:00,
2013-04-14 20:02:00,29.0,23.0,29.98,South,189,20.0,35.0,78,0.00,,,0.00,,2013-04-15 03:02:00,
2013-04-14 20:11:00,29.0,23.0,29.98,South,189,20.0,35.0,78,0.00,,,0.00,,2013-04-15 03:11:00,
2013-04-14 20:21:00,29.0,23.0,29.97,South,189,21.0,30.0,78,0.00,,,0.00,,2013-04-15 03:21:00,
2013-04-14 20:32:00,29.0,23.0,29.98,South,185,17.0,33.0,77,0.00,,,0.00,,2013-04-15 03:32:00,
2013-04-14 20:42:00,29.0,23.0,29.98,South,185,17.0,33.0,77,0.00,,,0.00,,2013-04-15 03:42:00,
2013-04-14 20:54:00,29.0,23.0,29.96,South,189,18.0,29.0,77,0.00,,,0.00,,2013-04-15 03:54:00,
2013-04-14 21:02:00,29.0,23.0,29.96,South,187,19.0,32.0,77,0.00,,,0.00,,2013-04-15 04:02:00,
2013-04-14 21:12:00,29.0,23.0,29.96,South,187,19.0,32.0,77,0.00,,,0.00,,2013-04-15 04:12:00,
2013-04-14 21:22:00,28.0,22.0,29.97,South,188,19.0,34.0,78,0.00,,,0.00,,2013-04-15 04:22:00,
2013-04-14 21:32:00,28.0,22.0,29.96,South,189,21.0,31.0,78,0.00,,,0.00,,2013-04-15 04:32:00,
2013-04-14 21:42:00,28.0,22.0,29.96,South,189,21.0,31.0,78,0.00,,,0.00,,2013-04-15 04:42:00,
2013-04-14 21:52:00,28.0,22.0,29.97,South,186,20.0,32.0,78,0.00,,,0.00,,2013-04-15 04:52:00,
2013-04-14 22:02:00,28.0,22.0,29.97,South,186,20.0,34.0,78,0.00,,,0.00,,2013-04-15 05:02:00,
2013-04-14 22:12:00,28.0,22.0,29.97,South,186,20.0,34.0,78,0.00,,,0.00,,2013-04-15 05:12:00,
2013-04-14 22:22:00,28.0,22.0,29.97,South,185,20.0,34.0,79,0.00,,,0.00,,2013-04-15 05:22:00,
2013-04-14 22:32:00,27.0,22.0,29.96,South,188,21.0,32.0,80,0.00,,,0.00,,2013-04-15 05:32:00,
2013-04-14 22:42:00,27.0,22.0,29.96,South,188,21.0,32.0,80,0.00,,,0.00,,2013-04-15 05:42:00,
2013-04-14 22:52:00,27.0,22.0,29.96,South,188,22.0,38.0,82,0.00,,,0.00,,2013-04-15 05:52:00,
2013-04-14 23:01:00,27.0,23.0,29.96,SSW,192,22.0,32.0,83,0.00,,,0.00,,2013-04-15 06:01:00,
2013-04-14 23:11:00,27.0,23.0,29.96,SSW,192,22.0,32.0,83,0.00,,,0.00,,2013-04-15 06:11:00,
2013-04-14 23:21:00,27.0,23.0,29.96,SSW,193,20.0,33.0,85,0.00,,,0.00,,2013-04-15 06:21:00,
2013-04-14 23:32:00,27.0,23.0,29.96,South,189,20.0,38.0,86,0.00,,,0.00,,2013-04-15 06:32:00,
2013-04-14 23:42:00,27.0,23.0,29.96,South,189,20.0,38.0,86,0.00,,,0.00,,2013-04-15 06:42:00,
2013-04-14 23:52:00,27.0,24.0,29.96,South,186,18.0,35.0,88,0.00,,,0.00,,2013-04-15 06:52:00,